GFSMW_700_spd_342.txt.gz
Wind_Speed
28 31 30 22 22 23 25 27 28 37 38 37 34 32 28 26 24 21 24 26 28 30 23 42 28 28 29 41 45 46 34 38 32 28 27 23 20 17 13 11 11 13 17
28 28 31 29 25 23 25 30 27 32 38 43 39 35 31 29 26 25 22 28 27 29 27 26 22 26 32 30 45 50 43 39 35 36 30 27 23 17 13 12 11 13 17
27 32 33 32 29 21 27 29 33 28 37 42 43 37 35 34 31 29 23 22 30 29 30 26 26 23 38 32 39 44 43 39 40 37 32 29 24 15 13 11 13 14 17
23 25 29 31 31 27 22 30 34 30 30 42 44 43 40 38 34 31 26 24 28 30 29 28 22 19 30 22 27 38 44 42 39 35 33 28 24 14 13 15 15 16 17
23 28 30 31 31 28 24 24 32 36 30 35 45 46 44 39 36 36 31 27 27 30 28 37 29 31 24 18 34 39 45 40 39 35 34 31 28 24 17 16 16 18 17
17 19 24 28 28 28 24 23 29 35 33 31 44 49 45 47 41 41 34 30 27 23 32 32 36 35 29 31 26 47 46 41 41 38 37 38 32 26 19 18 16 17 19
18 17 17 18 23 23 25 23 26 32 35 35 34 40 49 47 50 42 41 35 29 29 22 33 33 42 35 32 31 44 51 50 47 43 41 43 35 31 24 24 22 21 20
19 18 15 13 13 15 17 21 24 31 37 36 33 42 44 47 48 44 41 44 35 31 30 30 34 41 35 38 30 35 53 56 47 49 46 41 34 29 28 26 27 22 23
21 20 18 14 10 10 15 16 21 28 36 36 35 34 42 47 49 38 52 33 39 37 32 32 39 33 34 30 32 35 45 53 51 45 43 41 41 39 36 33 31 26 24
25 22 20 18 14 12 8 14 17 25 34 38 34 34 35 49 51 54 46 48 34 38 33 34 32 39 33 39 31 33 37 32 36 50 47 44 45 44 43 42 34 31 28
34 29 23 19 17 16 13 8 14 21 31 38 32 35 37 38 46 49 49 47 49 44 33 35 34 30 32 39 39 36 41 43 39 39 44 44 48 41 42 42 38 37 34
28 30 32 25 19 17 16 11 7 17 27 30 30 34 40 40 36 39 51 43 45 53 38 40 39 37 37 34 43 44 45 43 41 38 40 44 44 46 47 51 41 40 37
29 29 29 27 24 18 18 15 13 6 23 21 27 32 37 37 37 38 31 34 44 49 52 38 37 39 39 39 43 44 48 43 44 39 39 43 44 52 49 57 47 40 41
30 30 30 29 25 22 18 19 15 13 7 10 18 29 35 38 37 35 35 35 35 36 44 41 38 37 34 39 41 45 46 47 47 41 39 42 41 49 55 50 46 41 38
30 31 31 31 28 22 20 17 17 15 12 9 7 20 32 35 34 32 32 32 32 31 32 31 37 38 40 39 39 43 44 46 46 53 35 48 40 37 35 42 38 36 37
33 32 31 31 29 25 19 19 16 15 14 16 9 5 27 36 36 34 32 28 29 29 30 28 32 41 38 39 38 46 37 46 47 48 44 38 43 42 43 41 38 39 38
36 34 33 31 30 26 23 18 18 13 14 17 15 10 9 29 36 35 34 35 34 31 33 35 42 38 37 35 36 45 37 47 51 47 48 50 52 48 46 44 43 44 43
36 35 34 31 28 26 23 19 17 16 13 15 16 15 12 11 28 32 32 34 34 34 32 32 33 36 35 42 42 40 43 34 44 49 51 47 49 53 56 47 47 50 47
37 37 35 31 28 24 22 19 16 14 12 11 12 14 13 11 13 24 31 32 36 38 38 39 39 39 34 37 44 44 48 47 38 52 57 49 46 50 54 56 55 50 54
37 36 33 30 25 21 19 19 17 16 13 13 11 14 16 15 15 17 24 33 35 38 40 42 44 46 44 39 37 47 46 46 46 35 44 56 52 50 52 55 55 58 52
37 35 32 28 24 21 19 19 17 18 16 14 12 10 15 15 17 18 19 27 32 38 44 46 47 47 48 47 44 36 35 37 48 45 35 40 57 52 51 52 52 54 54
36 33 30 26 22 21 20 19 19 18 17 16 14 10 10 14 16 17 21 25 26 26 30 36 41 46 49 51 48 43 41 40 41 35 35 33 35 47 48 53 51 52 54
36 29 26 24 21 20 20 19 19 19 18 17 15 13 9 11 14 14 15 20 24 24 25 27 31 39 46 47 44 41 42 40 38 36 32 34 40 38 37 51 61 54 52
30 26 22 21 21 21 21 21 20 19 19 18 17 15 13 8 10 11 12 12 14 18 21 28 30 33 36 43 47 47 47 44 42 41 42 36 41 34 41 48 49 56 54
25 22 21 21 21 20 20 20 20 19 19 19 18 16 14 13 9 12 10 11 10 13 8 7 15 29 40 45 41 44 46 45 45 44 42 41 46 46 45 43 51 67 57
23 22 20 20 20 20 20 20 20 20 19 19 19 17 15 13 15 12 12 13 12 10 11 12 9 8 7 25 35 39 43 49 47 40 39 38 42 47 42 45 40 60 61

GFSMW_700_spd_345.txt.gz
Wind_Speed
29 29 27 25 23 25 32 35 35 35 37 41 39 37 34 31 29 24 22 20 22 23 24 29 28 31 27 34 24 42 34 41 37 39 32 31 28 23 20 18 16 18 21
25 25 26 25 24 25 28 34 35 34 34 38 43 42 39 36 33 30 24 25 22 25 26 29 26 30 28 29 36 37 38 47 43 38 35 34 31 27 21 18 16 16 19
23 26 27 26 24 25 25 30 35 36 33 32 38 44 43 39 36 34 27 24 23 21 27 32 25 27 25 21 25 35 48 51 47 46 39 36 33 25 21 17 15 14 16
10 15 20 22 23 23 25 26 31 38 35 32 34 40 46 46 37 34 31 26 27 28 24 25 30 31 23 23 28 40 43 56 46 43 44 37 30 27 21 18 15 15 15
13 13 17 21 22 21 21 26 28 34 39 32 32 33 43 43 43 37 35 30 31 29 27 23 34 26 25 19 25 43 39 45 48 48 44 41 33 32 23 15 14 15 15
15 13 15 18 21 23 23 22 25 31 35 36 31 34 35 40 41 40 37 37 34 32 29 23 37 29 28 21 12 35 46 42 43 40 38 38 32 31 21 17 14 14 17
20 17 17 15 17 18 19 23 24 27 32 34 32 33 32 43 38 45 41 31 35 35 33 25 22 32 30 28 29 25 23 35 34 41 39 38 35 33 29 26 21 19 19
22 19 19 20 18 16 13 16 24 26 30 33 32 33 36 34 38 41 48 44 40 36 33 28 26 23 31 31 33 30 33 35 43 45 44 43 40 38 38 31 26 26 24
26 24 20 20 20 18 15 13 19 24 28 33 31 29 31 31 39 44 51 41 42 38 39 34 30 29 34 38 36 41 30 36 38 45 47 48 46 44 40 33 32 29 27
26 25 24 22 21 20 17 15 14 22 27 30 32 27 32 34 36 41 37 49 44 43 34 42 37 30 31 33 37 43 32 39 43 46 51 50 52 49 41 35 31 32 31
28 27 25 24 23 21 19 16 13 15 22 28 31 28 29 34 37 40 34 42 44 47 50 37 44 35 38 40 47 43 35 37 35 47 51 55 57 53 42 40 40 39 37
29 28 27 25 24 22 20 18 13 12 17 22 27 27 26 33 39 36 32 31 51 46 45 46 43 40 35 38 33 41 42 37 35 31 29 48 50 58 47 42 44 44 46
30 29 28 26 26 23 20 19 16 12 11 16 19 25 26 30 37 39 35 31 34 47 37 47 46 52 40 35 31 33 36 39 39 40 41 39 40 45 49 48 43 42 51
32 32 29 27 26 24 21 19 18 16 12 9 12 17 22 30 34 34 32 32 33 34 37 52 44 49 61 41 33 33 39 38 42 40 42 48 50 48 34 43 46 48 46
35 34 32 29 27 24 21 17 16 18 15 12 8 7 17 30 34 32 30 30 31 32 31 30 37 42 48 50 37 36 46 40 42 45 47 43 43 47 40 36 43 54 54
38 36 32 31 27 26 22 18 17 17 17 14 12 7 6 26 35 33 31 30 32 34 34 34 33 37 32 36 51 40 40 37 43 44 44 47 46 38 36 40 43 46 58
38 38 35 32 29 26 24 19 16 17 17 16 15 12 8 10 25 31 32 31 31 33 34 36 34 32 30 26 31 45 38 42 38 47 44 49 48 46 40 40 47 37 39
38 38 35 30 28 25 22 19 15 15 15 15 15 15 12 10 8 14 26 32 33 34 35 33 31 30 30 29 30 31 29 41 21 25 45 50 52 47 44 39 38 40 41
36 35 32 29 26 23 20 18 15 13 13 13 13 13 13 13 12 8 9 20 30 35 37 36 34 33 34 32 29 31 27 26 37 31 36 38 39 45 42 40 46 46 49
34 34 31 25 22 20 18 17 16 15 13 13 12 12 12 13 16 16 12 6 13 28 36 37 38 39 38 37 37 34 31 31 34 33 33 40 29 36 40 46 49 51 55
35 34 27 21 19 19 18 16 16 16 14 14 12 11 12 11 14 17 18 14 11 10 24 35 39 40 42 43 41 40 37 35 38 34 33 34 38 35 37 48 59 46 46
33 28 23 19 17 17 17 16 15 15 16 15 15 12 11 11 12 14 15 17 17 17 15 19 27 35 40 44 45 45 44 43 42 37 33 29 29 27 28 21 49 56 42
27 23 20 17 17 17 17 17 16 16 16 16 16 14 11 10 12 13 13 12 13 15 16 17 18 25 27 36 43 47 48 47 46 40 38 40 35 33 28 31 28 40 55
23 21 19 17 16 16 17 17 16 16 16 15 16 16 14 11 11 12 14 14 12 11 13 15 19 21 25 29 33 38 45 47 49 51 46 40 40 33 30 33 36 40 41
21 20 19 18 17 16 16 17 17 17 17 16 15 15 15 14 10 12 13 12 13 14 12 13 14 16 19 24 30 32 34 41 46 47 44 46 45 41 41 38 40 39 47
20 19 18 18 19 18 17 17 18 18 18 17 15 14 14 14 14 10 11 15 15 13 15 14 13 15 16 13 15 23 36 39 44 46 49 48 44 47 46 46 46 47 45

GFSMW_700_spd_348.txt.gz
Wind_Speed
34 32 31 31 29 29 28 33 38 36 35 37 36 39 37 37 35 30 22 20 19 19 19 22 25 35 29 30 29 35 31 35 31 35 34 32 29 27 25 22 20 22 26
30 31 28 29 31 32 33 34 32 34 35 35 36 38 39 40 41 38 30 26 22 21 19 24 30 20 31 23 28 31 38 41 38 39 35 36 34 32 28 24 21 21 24
19 24 23 22 25 30 31 33 36 35 34 34 36 37 38 42 43 44 32 31 28 26 22 22 23 31 29 25 31 29 35 41 42 37 45 41 40 34 30 26 22 20 21
18 14 18 20 18 23 31 34 33 35 36 32 36 37 37 37 46 47 42 35 34 28 27 22 25 29 29 30 28 33 39 37 40 50 46 40 40 32 29 28 24 21 20
18 19 17 15 13 14 19 28 33 36 37 35 32 38 37 37 40 46 48 37 35 35 29 28 26 31 29 28 18 19 30 38 54 50 51 50 37 33 31 27 24 23 20
21 19 18 17 15 15 17 21 27 32 35 35 34 34 37 37 37 40 46 46 33 38 33 31 27 26 26 29 27 22 32 39 42 52 57 51 45 39 36 27 25 21 21
20 21 20 18 17 13 14 19 24 30 31 33 32 33 35 38 36 35 42 46 44 32 38 34 31 28 28 32 33 26 21 34 43 45 49 56 44 37 38 30 26 21 22
20 21 22 21 19 17 14 15 21 27 31 31 32 30 34 37 37 36 34 44 48 39 37 39 33 31 28 30 33 25 24 29 29 36 51 48 43 44 38 33 31 27 24
21 22 23 22 21 19 17 14 16 23 28 30 30 30 31 36 39 37 38 42 43 46 39 34 39 32 30 29 28 34 29 31 30 25 39 43 40 44 36 38 37 35 27
23 23 24 23 22 21 20 17 16 17 24 28 29 29 28 33 36 37 36 40 36 36 45 44 29 33 33 30 29 34 35 37 32 30 31 39 43 40 44 44 40 39 31
24 24 24 24 22 21 20 18 17 17 18 22 24 28 27 30 33 38 37 38 39 47 45 44 42 38 35 40 34 32 38 35 38 37 36 40 44 45 46 47 45 44 38
24 24 24 25 23 21 19 18 17 17 17 16 19 22 26 28 32 36 38 37 39 42 37 49 38 39 38 32 33 32 39 37 37 37 37 38 48 51 52 53 52 52 43
24 25 25 25 24 22 20 18 17 18 16 15 14 16 19 27 31 36 38 40 36 42 38 38 43 39 39 37 40 38 34 29 36 44 45 34 36 43 56 59 58 53 49
25 27 26 26 24 22 20 17 15 17 17 13 12 12 13 21 28 33 36 38 37 36 39 38 47 44 37 43 40 37 33 24 30 43 44 43 47 37 36 62 72 64 57
32 30 27 26 25 22 20 17 13 15 18 14 10 11 10 14 23 29 32 34 34 37 40 34 32 39 46 40 42 44 51 57 47 39 40 49 39 39 38 36 40 42 47
35 31 26 25 25 23 21 18 14 11 15 17 10 9 9 10 15 24 29 30 32 33 35 34 34 32 33 38 47 50 45 41 48 49 33 41 35 37 41 39 44 42 51
32 27 25 26 26 23 20 18 15 12 11 15 13 9 9 10 10 14 22 28 31 33 35 35 33 34 35 34 34 36 37 37 31 37 42 39 38 37 37 50 42 31 39
29 26 26 27 26 22 18 16 14 12 10 12 13 11 10 8 9 9 11 18 29 34 35 35 35 34 36 37 36 35 33 26 25 28 32 34 35 40 38 40 43 39 42
26 25 25 26 23 19 16 14 13 12 11 10 12 11 10 8 8 8 7 7 17 31 36 35 33 33 34 37 37 38 37 35 33 33 25 41 28 31 32 28 44 36 39
24 25 25 22 19 16 15 14 12 11 11 9 10 11 10 9 8 9 8 8 7 18 31 37 35 35 37 37 36 36 33 34 30 32 24 24 27 24 26 29 31 37 44
23 23 20 18 16 14 13 14 13 12 11 11 10 10 9 8 8 8 9 10 11 9 12 24 30 34 35 37 39 36 35 35 34 37 30 26 26 32 32 35 31 31 34
22 20 16 15 16 14 12 13 14 13 12 11 11 11 10 8 8 8 8 9 11 12 11 9 12 17 26 34 39 40 41 41 40 41 39 33 35 36 34 33 31 23 32
20 18 17 14 14 14 14 13 13 14 14 13 12 11 11 10 8 10 10 9 9 10 12 12 10 10 14 22 31 38 42 45 45 46 45 42 40 41 38 30 27 25 24
21 19 15 14 14 14 14 14 14 13 13 14 13 12 11 10 9 10 12 13 11 12 12 12 13 11 11 13 17 26 33 41 46 48 48 46 44 49 43 42 35 33 34
20 19 17 15 15 15 14 14 15 13 12 12 13 12 11 10 10 9 10 13 15 15 15 14 15 15 13 13 15 16 19 30 36 40 44 46 47 46 45 45 49 44 43
18 17 16 15 14 14 15 14 13 13 12 11 11 10 10 10 11 10 9 11 14 17 18 19 18 17 19 17 16 17 19 21 24 33 37 41 42 45 53 55 57 46 49

GFSMW_700_spd_351.txt.gz
Wind_Speed
21 21 25 28 30 33 35 31 30 28 35 34 33 32 32 33 32 32 29 25 23 20 19 17 13 18 21 26 27 35 43 37 33 32 30 29 30 28 24 22 20 18 20
21 22 22 25 28 32 34 36 35 34 29 30 34 32 32 32 35 36 35 31 27 22 22 22 18 17 21 30 24 30 33 50 44 37 36 33 32 31 28 25 23 21 20
20 18 22 20 18 27 32 35 36 37 36 33 29 33 32 31 34 38 38 37 34 29 25 25 23 21 24 27 22 25 27 42 44 45 40 38 35 36 33 29 25 23 22
22 20 20 19 19 18 25 33 36 35 37 35 34 30 32 32 32 35 39 40 35 35 27 29 29 26 24 33 26 30 33 33 39 42 41 40 39 38 35 33 30 26 24
20 21 20 19 18 18 16 26 32 36 38 37 35 33 31 32 33 34 34 38 38 36 32 29 34 27 25 25 28 32 33 39 31 34 35 43 46 38 36 34 32 29 26
19 19 20 21 21 19 15 17 23 30 35 36 36 35 35 32 32 35 34 33 36 39 35 31 34 34 29 24 23 24 26 29 29 24 36 44 49 49 38 36 32 28 26
21 20 22 22 23 21 15 16 19 23 29 33 32 31 33 36 34 34 36 35 32 36 40 33 37 35 28 23 24 25 29 26 29 38 33 44 44 45 41 31 27 28 29
21 22 22 23 24 22 18 16 17 20 25 29 32 32 32 33 37 34 35 36 32 31 38 42 31 31 32 26 24 26 31 28 35 29 41 46 42 47 51 43 40 25 29
21 22 22 23 24 23 19 17 17 17 23 27 29 31 32 31 35 36 35 37 35 35 36 35 43 35 28 32 26 32 30 31 32 28 29 37 41 43 46 46 43 29 30
22 22 23 23 24 24 21 17 17 18 18 24 28 30 30 31 33 36 37 37 38 34 28 33 40 42 35 32 32 27 30 21 33 32 28 25 34 38 39 49 47 46 36
22 23 24 24 23 24 22 19 17 18 18 19 23 25 26 30 31 33 36 36 38 37 39 38 38 39 36 39 32 24 26 37 32 26 31 37 26 34 38 41 43 46 38
23 24 25 24 24 24 22 19 18 17 18 19 19 21 23 27 29 31 34 36 37 39 36 38 32 29 37 42 41 35 27 28 31 33 35 30 28 29 35 37 43 50 41
24 25 26 24 23 23 23 19 18 17 17 18 17 18 19 20 27 30 33 35 35 37 36 39 40 42 44 39 38 31 35 30 39 29 33 27 36 36 38 38 40 49 46
25 26 26 24 22 22 23 20 18 17 17 17 16 14 16 14 19 26 29 32 34 37 39 38 39 40 33 42 38 40 27 31 33 30 31 35 35 34 38 42 44 48 55
26 29 26 23 22 22 23 20 18 16 16 16 16 12 11 12 12 19 25 29 31 34 37 38 38 41 40 36 42 38 36 38 41 34 24 28 31 29 34 42 39 37 45
30 26 22 21 23 23 22 19 16 15 14 14 13 12 7 7 8 11 19 24 28 30 33 35 38 37 38 36 45 46 37 32 39 34 36 33 36 42 42 43 42 41 44
28 23 21 22 23 22 21 18 15 13 12 13 12 12 8 3 5 6 11 19 25 27 29 31 34 39 42 37 33 36 37 43 38 38 39 36 31 21 32 39 35 34 36
25 23 21 22 21 19 18 16 14 13 11 11 12 12 11 2 4 4 4 8 16 23 27 28 30 33 37 39 40 38 36 33 32 36 33 34 33 23 24 37 43 34 34
21 21 20 20 18 16 16 13 12 12 11 10 9 13 10 6 3 5 4 3 5 13 18 24 28 31 34 38 38 38 38 36 32 33 32 27 28 27 25 28 25 21 27
19 20 19 16 15 15 14 12 11 10 11 11 10 11 10 7 3 4 6 5 4 5 11 17 24 29 32 34 37 39 37 37 36 38 33 34 36 31 29 21 29 22 18
18 19 15 15 14 13 12 11 11 11 10 9 10 10 10 7 6 5 4 5 5 5 4 7 13 22 29 34 35 36 37 39 38 39 42 38 33 38 28 24 19 22 26
17 16 14 13 14 13 11 11 10 9 9 9 9 10 10 10 6 7 7 6 5 5 6 6 7 11 18 26 35 39 39 40 40 41 40 42 40 36 31 30 25 26 28
15 14 13 12 13 13 12 12 10 10 9 8 8 8 9 9 8 9 10 12 10 9 8 8 8 9 11 13 19 32 41 44 44 41 40 43 40 44 37 40 35 39 39
14 14 14 14 14 13 13 13 12 10 10 9 8 8 7 8 8 8 11 13 13 14 14 13 12 12 12 11 12 16 21 31 39 42 42 42 43 45 46 47 44 39 45
19 18 16 13 13 12 12 12 12 11 9 8 8 8 7 6 6 9 10 12 13 14 16 17 18 17 16 15 15 15 15 15 18 25 31 39 42 42 46 47 49 47 46
19 19 18 16 13 11 11 10 10 9 8 8 7 6 6 7 7 7 8 12 14 15 16 17 17 18 21 21 19 19 18 19 18 17 16 21 32 37 39 44 48 46 49